When you browse on this site, cookies collect data to enhance your experience and personalize the content and advertising you see.
Visit our Privacy Policy to learn more. By continuing to use the site, you agree to this use of cookies and data.
  • In Spain
  • List of Countries
  • For 7 days
  • Water Temperature
  • Weather Map
  • Weather Widgets
  • user-avatar
    Login

    Hourly Weather Buenos Aires

    Today, 8 December, Sunday

    Time Temperature Precipitation Wind Pressure Humidity
    00:00 +22°C° 0 mm 5 mps 758 mmHg 31%
    01:00 +22°C° 0 mm 5 mps 758 mmHg 30%
    02:00 +22°C° 0 mm 5 mps 758 mmHg 29%
    03:00 +21°C° 0 mm 5 mps 758 mmHg 28%
    04:00 +21°C° 0 mm 5 mps 758 mmHg 27%
    05:00 +21°C° 0 mm 5 mps 758 mmHg 26%
    06:00 +22°C° 0 mm 5 mps 758 mmHg 26%
    07:00 +25°C° 0 mm 5 mps 758 mmHg 25%
    08:00 +27°C° 0 mm 5 mps 758 mmHg 24%
    09:00 +29°C° 0 mm 5 mps 757 mmHg 24%
    10:00 +32°C° 0 mm 5 mps 757 mmHg 24%
    11:00 +34°C° 0 mm 4 mps 757 mmHg 24%
    12:00 +35°C° 0 mm 4 mps 756 mmHg 23%
    13:00 +36°C° 0 mm 3 mps 755 mmHg 22%
    14:00 +36°C° 0 mm 3 mps 754 mmHg 21%
    15:00 +35°C° 0.1 mm 3 mps 754 mmHg 25%
    16:00 +34°C° 0.1 mm 4 mps 754 mmHg 28%
    17:00 +32°C° 0.1 mm 4 mps 754 mmHg 32%
    18:00 +30°C° 0.1 mm 4 mps 754 mmHg 33%
    19:00 +30°C° 0.1 mm 4 mps 754 mmHg 34%
    20:00 +29°C° 0.1 mm 4 mps 754 mmHg 36%
    21:00 +28°C° 0 mm 4 mps 755 mmHg 38%
    22:00 +28°C° 0 mm 5 mps 755 mmHg 41%
    23:00 +27°C° 0 mm 5 mps 755 mmHg 44%

    Tomorrow, 9 December, Monday

    Time Temperature Precipitation Wind Pressure Humidity
    00:00 +27°C° 0 mm 5 mps 755 mmHg 45%
    01:00 +26°C° 0 mm 4 mps 755 mmHg 47%
    02:00 +26°C° 0 mm 4 mps 755 mmHg 49%
    03:00 +25°C° 0 mm 4 mps 755 mmHg 50%
    04:00 +25°C° 0 mm 4 mps 755 mmHg 52%
    05:00 +25°C° 0 mm 4 mps 756 mmHg 54%
    06:00 +27°C° 0 mm 4 mps 756 mmHg 47%
    07:00 +28°C° 0 mm 4 mps 756 mmHg 41%
    08:00 +30°C° 0 mm 4 mps 756 mmHg 34%
    09:00 +33°C° 0 mm 4 mps 756 mmHg 30%
    10:00 +36°C° 0 mm 4 mps 755 mmHg 25%
    11:00 +38°C° 0 mm 4 mps 755 mmHg 21%
    12:00 +39°C° 0 mm 3 mps 754 mmHg 18%
    13:00 +40°C° 0 mm 3 mps 754 mmHg 15%
    14:00 +42°C° 0 mm 3 mps 753 mmHg 12%
    15:00 +42°C° 0 mm 3 mps 753 mmHg 12%
    16:00 +42°C° 0 mm 3 mps 752 mmHg 12%
    17:00 +40°C° 0 mm 3 mps 752 mmHg 12%
    18:00 +40°C° 0 mm 4 mps 752 mmHg 15%
    19:00 +37°C° 0 mm 5 mps 752 mmHg 18%
    20:00 +36°C° 0 mm 5 mps 752 mmHg 20%
    21:00 +35°C° 0 mm 6 mps 753 mmHg 22%
    22:00 +34°C° 0 mm 6 mps 753 mmHg 24%
    23:00 +33°C° 0 mm 7 mps 753 mmHg 27%

    Day after tomorrow, 10 December, Tuesday

    Time Temperature Precipitation Wind Pressure Humidity
    00:00 +33°C° 0 mm 6 mps 753 mmHg 28%
    01:00 +32°C° 0 mm 6 mps 753 mmHg 28%
    02:00 +32°C° 0 mm 6 mps 753 mmHg 29%
    03:00 +32°C° 0 mm 6 mps 753 mmHg 30%
    04:00 +30°C° 0 mm 6 mps 754 mmHg 31%
    05:00 +30°C° 0 mm 6 mps 754 mmHg 32%
    06:00 +32°C° 0 mm 6 mps 754 mmHg 30%
    07:00 +33°C° 0 mm 6 mps 754 mmHg 29%
    08:00 +35°C° 0 mm 6 mps 754 mmHg 27%
    09:00 +38°C° 0 mm 6 mps 754 mmHg 23%
    10:00 +40°C° 0 mm 5 mps 754 mmHg 20%
    11:00 +42°C° 0 mm 5 mps 753 mmHg 16%
    12:00 +43°C° 0 mm 5 mps 753 mmHg 14%
    13:00 +45°C° 0 mm 5 mps 752 mmHg 13%
    14:00 +46°C° 0 mm 5 mps 751 mmHg 11%
    15:00 +43°C° 0 mm 5 mps 751 mmHg 13%
    16:00 +41°C° 0 mm 5 mps 750 mmHg 16%
    17:00 +40°C° 0 mm 5 mps 750 mmHg 18%
    18:00 +39°C° 0 mm 5 mps 750 mmHg 19%
    19:00 +37°C° 0 mm 4 mps 751 mmHg 20%
    20:00 +37°C° 0 mm 4 mps 751 mmHg 21%
    21:00 +36°C° 0 mm 5 mps 751 mmHg 22%
    22:00 +36°C° 0 mm 6 mps 752 mmHg 23%
    23:00 +35°C° 0 mm 6 mps 752 mmHg 24%

    11 December, Wednesday

    Time Temperature Precipitation Wind Pressure Humidity
    00:00 +34°C° 0 mm 5 mps 752 mmHg 26%
    01:00 +33°C° 0 mm 4 mps 752 mmHg 27%
    02:00 +32°C° 0 mm 4 mps 752 mmHg 28%
    03:00 +30°C° 0 mm 3 mps 752 mmHg 30%
    04:00 +30°C° 0 mm 3 mps 751 mmHg 31%
    05:00 +29°C° 0 mm 2 mps 751 mmHg 32%
    06:00 +30°C° 0 mm 2 mps 751 mmHg 31%
    07:00 +31°C° 0 mm 2 mps 751 mmHg 29%
    08:00 +32°C° 0 mm 2 mps 751 mmHg 27%
    09:00 +34°C° 0.1 mm 2 mps 751 mmHg 26%
    10:00 +35°C° 0.1 mm 2 mps 750 mmHg 25%
    11:00 +37°C° 0.1 mm 2 mps 750 mmHg 23%
    12:00 +37°C° 0.1 mm 3 mps 750 mmHg 24%
    13:00 +36°C° 0.1 mm 4 mps 749 mmHg 24%
    14:00 +36°C° 0.1 mm 6 mps 749 mmHg 25%
    15:00 +35°C° 0.3 mm 5 mps 749 mmHg 29%
    16:00 +33°C° 0.3 mm 4 mps 749 mmHg 34%
    17:00 +31°C° 0.3 mm 3 mps 749 mmHg 38%
    18:00 +29°C° 0.9 mm 4 mps 749 mmHg 46%
    19:00 +28°C° 0.9 mm 5 mps 750 mmHg 53%
    20:00 +26°C° 0.9 mm 6 mps 750 mmHg 61%
    21:00 +26°C° 0 mm 6 mps 750 mmHg 63%
    22:00 +26°C° 0 mm 5 mps 751 mmHg 65%
    23:00 +25°C° 0 mm 4 mps 751 mmHg 67%

    12 December, Thursday

    Time Temperature Precipitation Wind Pressure Humidity
    00:00 +25°C° 0 mm 4 mps 751 mmHg 68%
    01:00 +24°C° 0 mm 3 mps 751 mmHg 69%
    02:00 +24°C° 0 mm 2 mps 751 mmHg 70%
    03:00 +24°C° 0 mm 2 mps 751 mmHg 71%
    04:00 +23°C° 0 mm 2 mps 751 mmHg 72%
    05:00 +23°C° 0 mm 2 mps 752 mmHg 72%
    06:00 +22°C° 0 mm 4 mps 752 mmHg 65%
    07:00 +22°C° 0 mm 6 mps 753 mmHg 57%
    08:00 +22°C° 0 mm 8 mps 754 mmHg 49%
    09:00 +23°C° 0 mm 7 mps 754 mmHg 40%
    10:00 +26°C° 0 mm 6 mps 755 mmHg 31%
    11:00 +28°C° 0 mm 5 mps 755 mmHg 23%
    12:00 +28°C° 0 mm 5 mps 755 mmHg 20%
    13:00 +29°C° 0 mm 5 mps 755 mmHg 18%
    14:00 +30°C° 0 mm 5 mps 755 mmHg 15%
    15:00 +29°C° 0 mm 5 mps 755 mmHg 16%
    16:00 +29°C° 0 mm 6 mps 755 mmHg 16%
    17:00 +29°C° 0 mm 6 mps 755 mmHg 17%
    18:00 +26°C° 0 mm 7 mps 756 mmHg 29%
    19:00 +23°C° 0 mm 7 mps 757 mmHg 41%
    20:00 +21°C° 0 mm 8 mps 757 mmHg 53%
    21:00 +20°C° 0 mm 7 mps 758 mmHg 54%
    22:00 +20°C° 0 mm 7 mps 759 mmHg 55%
    23:00 +18°C° 0 mm 7 mps 759 mmHg 55%

    13 December, Friday

    Time Temperature Precipitation Wind Pressure Humidity
    00:00 +19°C° 0 mm 6 mps 760 mmHg 54%
    01:00 +17°C° 0 mm 5 mps 760 mmHg 54%
    02:00 +18°C° 0 mm 4 mps 760 mmHg 53%
    03:00 +17°C° 0 mm 4 mps 761 mmHg 54%
    04:00 +17°C° 0 mm 3 mps 761 mmHg 56%
    05:00 +17°C° 0 mm 3 mps 761 mmHg 58%
    06:00 +19°C° 0 mm 2 mps 762 mmHg 53%
    07:00 +20°C° 0 mm 2 mps 762 mmHg 48%
    08:00 +23°C° 0 mm 2 mps 762 mmHg 42%
    09:00 +25°C° 0 mm 2 mps 762 mmHg 35%
    10:00 +27°C° 0 mm 2 mps 762 mmHg 28%
    11:00 +29°C° 0 mm 2 mps 762 mmHg 21%
    12:00 +29°C° 0 mm 3 mps 761 mmHg 20%
    13:00 +30°C° 0 mm 3 mps 761 mmHg 18%
    14:00 +30°C° 0 mm 3 mps 760 mmHg 17%
    15:00 +30°C° 0 mm 3 mps 760 mmHg 17%
    16:00 +29°C° 0 mm 3 mps 759 mmHg 18%
    17:00 +29°C° 0 mm 3 mps 759 mmHg 18%
    18:00 +27°C° 0 mm 4 mps 759 mmHg 24%
    19:00 +26°C° 0 mm 5 mps 760 mmHg 30%
    20:00 +24°C° 0 mm 6 mps 760 mmHg 36%
    21:00 +23°C° 0 mm 6 mps 760 mmHg 33%
    22:00 +23°C° 0 mm 7 mps 760 mmHg 31%
    23:00 +22°C° 0 mm 8 mps 760 mmHg 29%
    Show more